Location: Bennemühlen
(52.5740°N, 9.7135°E)
Time: 16:51:32
(UTC+00:00)

SR - Pass Details

Date: 17 February 2026
Orbit: 572 x 848 km, 66.7° (Epoch: 8 March)

Event Time Altitude Azimuth Distance (km) Brightness Sun altitude
Exits shadow 05:30:17 10° 244° (WSW) 1,948 ? -10.2°
Reaches altitude 10° 05:30:22 10° 245° (WSW) 1,914 ? -10.2°
Maximum altitude 05:34:29 45° 319° (NW) 837 ? -9.6°
Drops below altitude 10° 05:38:53 10° 32° (NNE) 2,040 ? -8.9°
Sets 05:41:21 0° 39° (NE) 2,999 ? -8.5°
